Time,TemperatureF,DewpointF,PressureIn,WindDirection,WindDirectionDegrees,WindSpeedMPH,WindSpeedGustMPH,Humidity,HourlyPrecipIn,Conditions,Clouds,dailyrainin,SolarRadiationWatts/m^2,SoftwareType,DateUTC
2013-06-27 00:22:00,67.0,67.0,-100.00,WSW,241,6.0,11.0,100,0.00,,,0.52,0.000000,,2013-06-27 05:22:00,
2013-06-27 00:32:00,67.0,67.0,-100.00,WSW,241,6.0,11.0,100,0.00,,,0.52,0.000000,,2013-06-27 05:32:00,
2013-06-27 00:42:00,67.0,67.0,-100.00,WSW,241,6.0,11.0,100,0.00,,,0.52,0.000000,,2013-06-27 05:42:00,
2013-06-27 00:53:00,67.0,67.0,-100.00,WSW,241,6.0,11.0,100,0.00,,,0.52,0.000000,,2013-06-27 05:53:00,
2013-06-27 01:22:00,67.0,67.0,-100.00,West,278,8.0,10.0,100,0.00,,,0.05,0.000000,,2013-06-27 06:22:00,
2013-06-27 01:34:00,67.0,67.0,-100.00,West,278,8.0,10.0,100,0.00,,,0.05,0.000000,,2013-06-27 06:34:00,
2013-06-27 01:43:00,67.0,67.0,-100.00,West,278,8.0,10.0,100,0.00,,,0.05,0.000000,,2013-06-27 06:43:00,
2013-06-27 01:53:00,67.0,67.0,-100.00,West,278,8.0,10.0,100,0.00,,,0.05,0.000000,,2013-06-27 06:53:00,
2013-06-27 02:22:00,67.0,67.0,-100.00,West,279,10.0,12.0,99,0.00,,,0.04,0.000000,,2013-06-27 07:22:00,
2013-06-27 02:33:00,67.0,67.0,-100.00,West,279,10.0,12.0,99,0.00,,,0.04,0.000000,,2013-06-27 07:33:00,
2013-06-27 02:42:00,67.0,67.0,-100.00,West,279,10.0,12.0,99,0.00,,,0.04,0.000000,,2013-06-27 07:42:00,
2013-06-27 02:52:00,67.0,67.0,-100.00,West,279,10.0,12.0,99,0.00,,,0.04,0.000000,,2013-06-27 07:52:00,
2013-06-27 03:22:00,65.0,65.0,-100.00,West,270,9.0,14.0,100,0.00,,,0.02,0.000000,,2013-06-27 08:22:00,
2013-06-27 03:34:00,65.0,65.0,-100.00,West,270,9.0,14.0,100,0.00,,,0.02,0.000000,,2013-06-27 08:34:00,
2013-06-27 03:43:00,65.0,65.0,-100.00,West,270,9.0,14.0,100,0.00,,,0.02,0.000000,,2013-06-27 08:43:00,
2013-06-27 03:52:00,65.0,65.0,-100.00,West,270,9.0,14.0,100,0.00,,,0.02,0.000000,,2013-06-27 08:52:00,
2013-06-27 04:34:00,65.0,64.0,-100.00,WNW,290,10.0,14.0,98,0.00,,,0.02,0.000000,,2013-06-27 09:34:00,
2013-06-27 04:43:00,65.0,64.0,-100.00,WNW,290,10.0,14.0,98,0.00,,,0.02,0.000000,,2013-06-27 09:43:00,
2013-06-27 04:53:00,65.0,64.0,-100.00,WNW,290,10.0,14.0,98,0.00,,,0.02,0.000000,,2013-06-27 09:53:00,
2013-06-27 05:32:00,63.0,62.0,-100.00,WNW,293,10.0,12.0,96,0.00,,,0.02,0.000000,,2013-06-27 10:32:00,
2013-06-27 05:44:00,63.0,62.0,-100.00,WNW,293,10.0,12.0,96,0.00,,,0.02,0.000000,,2013-06-27 10:44:00,
2013-06-27 05:54:00,63.0,62.0,-100.00,WNW,293,10.0,12.0,96,0.00,,,0.02,0.000000,,2013-06-27 10:54:00,
2013-06-27 06:22:00,62.0,58.0,-100.00,WNW,291,10.0,15.0,88,0.00,,,0.02,2.000000,,2013-06-27 11:22:00,
2013-06-27 06:33:00,62.0,58.0,-100.00,WNW,291,10.0,15.0,88,0.00,,,0.02,2.000000,,2013-06-27 11:33:00,
2013-06-27 06:43:00,62.0,58.0,-100.00,WNW,291,10.0,15.0,88,0.00,,,0.02,2.000000,,2013-06-27 11:43:00,
2013-06-27 06:52:00,62.0,58.0,-100.00,WNW,291,10.0,15.0,88,0.00,,,0.02,2.000000,,2013-06-27 11:52:00,
2013-06-27 07:22:00,64.0,61.0,-100.00,WNW,286,12.0,16.0,91,0.00,,,0.02,83.000000,,2013-06-27 12:22:00,
2013-06-27 07:34:00,64.0,61.0,-100.00,WNW,286,12.0,16.0,91,0.00,,,0.02,83.000000,,2013-06-27 12:34:00,
2013-06-27 07:42:00,64.0,61.0,-100.00,WNW,286,12.0,16.0,91,0.00,,,0.02,83.000000,,2013-06-27 12:42:00,
2013-06-27 08:34:00,66.0,61.0,-100.00,WNW,285,11.0,16.0,83,0.00,,,0.02,289.000000,,2013-06-27 13:34:00,
2013-06-27 08:43:00,66.0,61.0,-100.00,WNW,285,11.0,16.0,83,0.00,,,0.02,289.000000,,2013-06-27 13:43:00,
2013-06-27 08:52:00,66.0,61.0,-100.00,WNW,285,11.0,16.0,83,0.00,,,0.02,289.000000,,2013-06-27 13:52:00,
2013-06-27 09:22:00,70.0,63.0,-100.00,NW,305,13.0,19.0,78,0.00,,,0.02,358.000000,,2013-06-27 14:22:00,
2013-06-27 09:33:00,70.0,63.0,-100.00,NW,305,13.0,19.0,78,0.00,,,0.02,358.000000,,2013-06-27 14:33:00,
2013-06-27 09:43:00,70.0,63.0,-100.00,NW,305,13.0,19.0,78,0.00,,,0.02,358.000000,,2013-06-27 14:43:00,
2013-06-27 09:52:00,70.0,63.0,-100.00,NW,305,13.0,19.0,78,0.00,,,0.02,358.000000,,2013-06-27 14:52:00,
2013-06-27 10:33:00,72.0,62.0,-100.00,NW,305,14.0,19.0,72,0.00,,,0.02,159.000000,,2013-06-27 15:33:00,
2013-06-27 10:42:00,72.0,62.0,-100.00,NW,305,14.0,19.0,72,0.00,,,0.02,159.000000,,2013-06-27 15:42:00,
2013-06-27 10:52:00,72.0,62.0,-100.00,NW,305,14.0,19.0,72,0.00,,,0.02,159.000000,,2013-06-27 15:52:00,
2013-06-27 11:23:00,75.0,63.0,-100.00,WNW,303,17.0,24.0,66,0.00,,,0.02,123.000000,,2013-06-27 16:23:00,
2013-06-27 11:34:00,75.0,63.0,-100.00,WNW,303,17.0,24.0,66,0.00,,,0.02,123.000000,,2013-06-27 16:34:00,
2013-06-27 11:43:00,75.0,63.0,-100.00,WNW,303,17.0,24.0,66,0.00,,,0.02,123.000000,,2013-06-27 16:43:00,
2013-06-27 11:53:00,75.0,63.0,-100.00,WNW,303,17.0,24.0,66,0.00,,,0.02,123.000000,,2013-06-27 16:53:00,
2013-06-27 12:22:00,77.0,57.0,-100.00,NW,311,22.0,28.0,51,0.00,,,0.02,964.000000,,2013-06-27 17:22:00,
2013-06-27 12:33:00,77.0,57.0,-100.00,NW,311,22.0,28.0,51,0.00,,,0.02,964.000000,,2013-06-27 17:33:00,
2013-06-27 12:43:00,77.0,57.0,-100.00,NW,311,22.0,28.0,51,0.00,,,0.02,964.000000,,2013-06-27 17:43:00,
2013-06-27 12:53:00,77.0,57.0,-100.00,NW,311,22.0,28.0,51,0.00,,,0.02,964.000000,,2013-06-27 17:53:00,
2013-06-27 13:22:00,79.0,58.0,-100.00,NW,313,18.0,28.0,48,0.00,,,0.02,1055.000000,,2013-06-27 18:22:00,
2013-06-27 13:32:00,79.0,58.0,-100.00,NW,313,18.0,28.0,48,0.00,,,0.02,1055.000000,,2013-06-27 18:32:00,
2013-06-27 13:44:00,79.0,58.0,-100.00,NW,313,18.0,28.0,48,0.00,,,0.02,1055.000000,,2013-06-27 18:44:00,
2013-06-27 13:52:00,79.0,58.0,-100.00,NW,313,18.0,28.0,48,0.00,,,0.02,1055.000000,,2013-06-27 18:52:00,
2013-06-27 15:22:00,80.0,53.0,-100.00,NW,315,22.0,32.0,40,0.00,,,0.02,1039.000000,,2013-06-27 20:22:00,
2013-06-27 15:36:00,80.0,53.0,-100.00,NW,315,22.0,32.0,40,0.00,,,0.02,1039.000000,,2013-06-27 20:36:00,
2013-06-27 15:45:00,80.0,53.0,-100.00,NW,315,22.0,32.0,40,0.00,,,0.02,1039.000000,,2013-06-27 20:45:00,
2013-06-27 15:54:00,80.0,53.0,-100.00,NW,315,22.0,32.0,40,0.00,,,0.02,1039.000000,,2013-06-27 20:54:00,
2013-06-27 16:24:00,81.0,55.0,-100.00,NW,315,17.0,28.0,41,0.00,,,0.02,945.000000,,2013-06-27 21:24:00,
2013-06-27 16:45:00,81.0,55.0,-100.00,NW,315,17.0,28.0,41,0.00,,,0.02,945.000000,,2013-06-27 21:45:00,
2013-06-27 16:53:00,81.0,55.0,-100.00,NW,315,17.0,28.0,41,0.00,,,0.02,945.000000,,2013-06-27 21:53:00,
2013-06-27 17:47:00,81.0,56.0,-100.00,NW,319,20.0,30.0,42,0.00,,,0.02,718.000000,,2013-06-27 22:47:00,
2013-06-27 17:55:00,81.0,56.0,-100.00,NW,319,20.0,30.0,42,0.00,,,0.02,718.000000,,2013-06-27 22:55:00,
2013-06-27 18:34:00,80.0,54.0,-100.00,NW,325,21.0,32.0,41,0.00,,,0.02,623.000000,,2013-06-27 23:34:00,
2013-06-27 18:45:00,80.0,54.0,-100.00,NW,325,21.0,32.0,41,0.00,,,0.02,623.000000,,2013-06-27 23:45:00,
2013-06-27 18:54:00,80.0,54.0,-100.00,NW,325,21.0,32.0,41,0.00,,,0.02,623.000000,,2013-06-27 23:54:00,
2013-06-27 19:45:00,79.0,53.0,-100.00,NW,325,21.0,31.0,40,0.00,,,0.02,440.000000,,2013-06-28 00:45:00,
2013-06-27 19:54:00,79.0,53.0,-100.00,NW,325,21.0,31.0,40,0.00,,,0.02,440.000000,,2013-06-28 00:54:00,
2013-06-27 20:24:00,76.0,50.0,-100.00,NW,321,18.0,30.0,40,0.00,,,0.00,253.000000,,2013-06-28 01:24:00,
2013-06-27 20:35:00,76.0,50.0,-100.00,NW,321,18.0,30.0,40,0.00,,,0.00,253.000000,,2013-06-28 01:35:00,
2013-06-27 20:45:00,76.0,50.0,-100.00,NW,321,18.0,30.0,40,0.00,,,0.00,253.000000,,2013-06-28 01:45:00,
2013-06-27 20:55:00,76.0,50.0,-100.00,NW,321,18.0,30.0,40,0.00,,,0.00,253.000000,,2013-06-28 01:55:00,
2013-06-27 21:26:00,73.0,52.0,-100.00,NW,317,15.0,24.0,47,0.00,,,0.00,81.000000,,2013-06-28 02:26:00,
2013-06-27 21:36:00,73.0,52.0,-100.00,NW,317,15.0,24.0,47,0.00,,,0.00,81.000000,,2013-06-28 02:36:00,
2013-06-27 21:48:00,73.0,52.0,-100.00,NW,317,15.0,24.0,47,0.00,,,0.00,81.000000,,2013-06-28 02:48:00,
2013-06-27 22:26:00,68.0,54.0,-100.00,NW,318,10.0,16.0,60,0.00,,,0.00,4.000000,,2013-06-28 03:26:00,
2013-06-27 22:36:00,68.0,54.0,-100.00,NW,318,10.0,16.0,60,0.00,,,0.00,4.000000,,2013-06-28 03:36:00,
2013-06-27 22:44:00,68.0,54.0,-100.00,NW,318,10.0,16.0,60,0.00,,,0.00,4.000000,,2013-06-28 03:44:00,
2013-06-27 22:55:00,68.0,54.0,-100.00,NW,318,10.0,16.0,60,0.00,,,0.00,4.000000,,2013-06-28 03:55:00,
2013-06-27 23:33:00,66.0,56.0,-100.00,NNW,327,9.0,11.0,69,0.00,,,0.00,0.000000,,2013-06-28 04:33:00,
2013-06-27 23:43:00,66.0,56.0,-100.00,NNW,327,9.0,11.0,69,0.00,,,0.00,0.000000,,2013-06-28 04:43:00,
2013-06-27 23:53:00,66.0,56.0,-100.00,NNW,327,9.0,11.0,69,0.00,,,0.00,0.000000,,2013-06-28 04:53:00,